Location: Newark
(59.8814°N, 10.8258°E)
Time: 01:32:18
(UTC+00:00)

Envisat - Pass Details

Date: 27 January 2020
Orbit: 764 x 766 km, 98.1° (Epoch: 21 February)

Event Time Altitude Azimuth Distance (km) Brightness Sun altitude
Rises 16:17:29 0° 152° (SSE) 3,228 6.2 -7.3°
Reaches altitude 10° 16:19:47 10° 150° (SSE) 2,305 5.4 -7.6°
Maximum altitude 16:24:50 71° 68° (ENE) 816 3.0 -8.2°
Drops below altitude 10° 16:29:56 10° 345° (NNW) 2,319 5.4 -8.7°
Sets 16:32:15 0° 344° (NNW) 3,249 6.2 -9.0°
